Time,TemperatureF,DewpointF,PressureIn,WindDirection,WindDirectionDegrees,WindSpeedMPH,WindSpeedGustMPH,Humidity,HourlyPrecipIn,Conditions,Clouds,dailyrainin,SolarRadiationWatts/m^2,SoftwareType,DateUTC
2013-03-26 00:03:00,33.0,24.0,-100.00,SE,129,1.0,6.0,68,0.00,,,0.00,0.000000,,2013-03-26 04:03:00,
2013-03-26 00:13:00,33.0,24.0,-100.00,SE,129,1.0,6.0,68,0.00,,,0.00,0.000000,,2013-03-26 04:13:00,
2013-03-26 00:23:00,33.0,24.0,-100.00,SE,129,1.0,6.0,68,0.00,,,0.00,0.000000,,2013-03-26 04:23:00,
2013-03-26 00:53:00,32.0,22.0,-100.00,NNE,32,3.0,5.0,65,0.00,,,0.00,0.000000,,2013-03-26 04:53:00,
2013-03-26 01:02:00,32.0,22.0,-100.00,NNE,32,3.0,5.0,65,0.00,,,0.00,0.000000,,2013-03-26 05:02:00,
2013-03-26 01:12:00,32.0,22.0,-100.00,NNE,32,3.0,5.0,65,0.00,,,0.00,0.000000,,2013-03-26 05:12:00,
2013-03-26 01:22:00,32.0,22.0,-100.00,NNE,32,3.0,5.0,65,0.00,,,0.00,0.000000,,2013-03-26 05:22:00,
2013-03-26 01:52:00,32.0,20.0,-100.00,ENE,70,2.0,11.0,61,0.00,,,0.00,0.000000,,2013-03-26 05:52:00,
2013-03-26 02:02:00,32.0,20.0,-100.00,ENE,70,2.0,11.0,61,0.00,,,0.00,0.000000,,2013-03-26 06:02:00,
2013-03-26 02:12:00,32.0,20.0,-100.00,ENE,70,2.0,11.0,61,0.00,,,0.00,0.000000,,2013-03-26 06:12:00,
2013-03-26 02:22:00,32.0,20.0,-100.00,ENE,70,2.0,11.0,61,0.00,,,0.00,0.000000,,2013-03-26 06:22:00,
2013-03-26 02:53:00,31.0,21.0,-100.00,NNE,30,0.0,4.0,65,0.00,,,0.00,0.000000,,2013-03-26 06:53:00,
2013-03-26 03:02:00,31.0,21.0,-100.00,NNE,30,0.0,4.0,65,0.00,,,0.00,0.000000,,2013-03-26 07:02:00,
2013-03-26 03:12:00,31.0,21.0,-100.00,NNE,30,0.0,4.0,65,0.00,,,0.00,0.000000,,2013-03-26 07:12:00,
2013-03-26 03:22:00,31.0,21.0,-100.00,NNE,30,0.0,4.0,65,0.00,,,0.00,0.000000,,2013-03-26 07:22:00,
2013-03-26 03:53:00,30.0,21.0,-100.00,SE,130,0.0,2.0,69,0.00,,,0.00,0.000000,,2013-03-26 07:53:00,
2013-03-26 04:02:00,30.0,21.0,-100.00,SE,130,0.0,2.0,69,0.00,,,0.00,0.000000,,2013-03-26 08:02:00,
2013-03-26 04:13:00,30.0,21.0,-100.00,SE,130,0.0,2.0,69,0.00,,,0.00,0.000000,,2013-03-26 08:13:00,
2013-03-26 04:22:00,30.0,21.0,-100.00,SE,130,0.0,2.0,69,0.00,,,0.00,0.000000,,2013-03-26 08:22:00,
2013-03-26 04:52:00,31.0,21.0,-100.00,NNE,25,2.0,5.0,66,0.00,,,0.00,0.000000,,2013-03-26 08:52:00,
2013-03-26 05:02:00,31.0,21.0,-100.00,NNE,25,2.0,5.0,66,0.00,,,0.00,0.000000,,2013-03-26 09:02:00,
2013-03-26 05:12:00,31.0,21.0,-100.00,NNE,25,2.0,5.0,66,0.00,,,0.00,0.000000,,2013-03-26 09:12:00,
2013-03-26 05:22:00,31.0,21.0,-100.00,NNE,25,2.0,5.0,66,0.00,,,0.00,0.000000,,2013-03-26 09:22:00,
2013-03-26 05:52:00,29.0,20.0,-100.00,East,100,1.0,5.0,69,0.00,,,0.00,0.000000,,2013-03-26 09:52:00,
2013-03-26 06:03:00,29.0,20.0,-100.00,East,100,1.0,5.0,69,0.00,,,0.00,0.000000,,2013-03-26 10:03:00,
2013-03-26 06:12:00,29.0,20.0,-100.00,East,100,1.0,5.0,69,0.00,,,0.00,0.000000,,2013-03-26 10:12:00,
2013-03-26 06:22:00,29.0,20.0,-100.00,East,100,1.0,5.0,69,0.00,,,0.00,0.000000,,2013-03-26 10:22:00,
2013-03-26 06:53:00,26.0,20.0,-100.00,SSE,150,0.0,3.0,77,0.00,,,0.00,0.000000,,2013-03-26 10:53:00,
2013-03-26 07:03:00,26.0,20.0,-100.00,SSE,150,0.0,3.0,77,0.00,,,0.00,0.000000,,2013-03-26 11:03:00,
2013-03-26 07:12:00,26.0,20.0,-100.00,SSE,150,0.0,3.0,77,0.00,,,0.00,0.000000,,2013-03-26 11:12:00,
2013-03-26 07:22:00,26.0,20.0,-100.00,SSE,150,0.0,3.0,77,0.00,,,0.00,0.000000,,2013-03-26 11:22:00,
2013-03-26 07:52:00,24.0,19.0,-100.00,ESE,114,0.0,4.0,81,0.00,,,0.00,9.000000,,2013-03-26 11:52:00,
2013-03-26 08:03:00,24.0,19.0,-100.00,ESE,114,0.0,4.0,81,0.00,,,0.00,9.000000,,2013-03-26 12:03:00,
2013-03-26 08:12:00,24.0,19.0,-100.00,ESE,114,0.0,4.0,81,0.00,,,0.00,9.000000,,2013-03-26 12:12:00,
2013-03-26 08:22:00,24.0,19.0,-100.00,ESE,114,0.0,4.0,81,0.00,,,0.00,9.000000,,2013-03-26 12:22:00,
2013-03-26 08:52:00,33.0,23.0,-100.00,SW,219,0.0,3.0,66,0.00,,,0.00,110.000000,,2013-03-26 12:52:00,
2013-03-26 09:03:00,33.0,23.0,-100.00,SW,219,0.0,3.0,66,0.00,,,0.00,110.000000,,2013-03-26 13:03:00,
2013-03-26 09:12:00,33.0,23.0,-100.00,SW,219,0.0,3.0,66,0.00,,,0.00,110.000000,,2013-03-26 13:12:00,
2013-03-26 09:23:00,33.0,23.0,-100.00,SW,219,0.0,3.0,66,0.00,,,0.00,110.000000,,2013-03-26 13:23:00,
2013-03-26 09:52:00,34.0,22.0,-100.00,NNW,334,4.0,9.0,61,0.00,,,0.00,271.000000,,2013-03-26 13:52:00,
2013-03-26 10:02:00,34.0,22.0,-100.00,NNW,334,4.0,9.0,61,0.00,,,0.00,271.000000,,2013-03-26 14:02:00,
2013-03-26 10:12:00,34.0,22.0,-100.00,NNW,334,4.0,9.0,61,0.00,,,0.00,271.000000,,2013-03-26 14:12:00,
2013-03-26 10:22:00,34.0,22.0,-100.00,NNW,334,4.0,9.0,61,0.00,,,0.00,271.000000,,2013-03-26 14:22:00,
2013-03-26 10:53:00,39.0,21.0,-100.00,NNW,342,4.0,11.0,49,0.00,,,0.00,385.000000,,2013-03-26 14:53:00,
2013-03-26 11:02:00,39.0,21.0,-100.00,NNW,342,4.0,11.0,49,0.00,,,0.00,385.000000,,2013-03-26 15:02:00,
2013-03-26 11:12:00,39.0,21.0,-100.00,NNW,342,4.0,11.0,49,0.00,,,0.00,385.000000,,2013-03-26 15:12:00,
2013-03-26 11:22:00,39.0,21.0,-100.00,NNW,342,4.0,11.0,49,0.00,,,0.00,385.000000,,2013-03-26 15:22:00,
2013-03-26 11:53:00,42.0,19.0,-100.00,WNW,303,7.0,12.0,40,0.00,,,0.00,657.000000,,2013-03-26 15:53:00,
2013-03-26 12:03:00,42.0,19.0,-100.00,WNW,303,7.0,12.0,40,0.00,,,0.00,657.000000,,2013-03-26 16:03:00,
2013-03-26 12:13:00,42.0,19.0,-100.00,WNW,303,7.0,12.0,40,0.00,,,0.00,657.000000,,2013-03-26 16:13:00,
2013-03-26 12:23:00,42.0,19.0,-100.00,WNW,303,7.0,12.0,40,0.00,,,0.00,657.000000,,2013-03-26 16:23:00,
2013-03-26 12:54:00,42.0,21.0,-100.00,WNW,296,6.0,12.0,43,0.00,,,0.00,542.000000,,2013-03-26 16:54:00,
2013-03-26 13:03:00,42.0,21.0,-100.00,WNW,296,6.0,12.0,43,0.00,,,0.00,542.000000,,2013-03-26 17:03:00,
2013-03-26 13:12:00,42.0,21.0,-100.00,WNW,296,6.0,12.0,43,0.00,,,0.00,542.000000,,2013-03-26 17:12:00,
2013-03-26 13:23:00,42.0,21.0,-100.00,WNW,296,6.0,12.0,43,0.00,,,0.00,542.000000,,2013-03-26 17:23:00,
2013-03-26 13:53:00,41.0,21.0,-100.00,NW,308,6.0,14.0,44,0.00,,,0.00,479.000000,,2013-03-26 17:53:00,
2013-03-26 14:03:00,41.0,21.0,-100.00,NW,308,6.0,14.0,44,0.00,,,0.00,479.000000,,2013-03-26 18:03:00,
2013-03-26 14:12:00,41.0,21.0,-100.00,NW,308,6.0,14.0,44,0.00,,,0.00,479.000000,,2013-03-26 18:12:00,
2013-03-26 14:23:00,41.0,21.0,-100.00,NW,308,6.0,14.0,44,0.00,,,0.00,479.000000,,2013-03-26 18:23:00,
2013-03-26 14:53:00,42.0,21.0,-100.00,NNW,330,4.0,14.0,42,0.00,,,0.00,466.000000,,2013-03-26 18:53:00,
2013-03-26 15:03:00,42.0,21.0,-100.00,NNW,330,4.0,14.0,42,0.00,,,0.00,466.000000,,2013-03-26 19:03:00,
2013-03-26 15:12:00,42.0,21.0,-100.00,NNW,330,4.0,14.0,42,0.00,,,0.00,466.000000,,2013-03-26 19:12:00,
2013-03-26 15:22:00,42.0,21.0,-100.00,NNW,330,4.0,14.0,42,0.00,,,0.00,466.000000,,2013-03-26 19:22:00,
2013-03-26 15:53:00,41.0,21.0,-100.00,NW,321,6.0,14.0,44,0.00,,,0.00,317.000000,,2013-03-26 19:53:00,
2013-03-26 16:02:00,41.0,21.0,-100.00,NW,321,6.0,14.0,44,0.00,,,0.00,317.000000,,2013-03-26 20:02:00,
2013-03-26 16:13:00,41.0,21.0,-100.00,NW,321,6.0,14.0,44,0.00,,,0.00,317.000000,,2013-03-26 20:13:00,
2013-03-26 16:23:00,41.0,21.0,-100.00,NW,321,6.0,14.0,44,0.00,,,0.00,317.000000,,2013-03-26 20:23:00,
2013-03-26 16:53:00,38.0,20.0,-100.00,NW,313,7.0,14.0,47,0.00,,,0.00,205.000000,,2013-03-26 20:53:00,
2013-03-26 17:02:00,38.0,20.0,-100.00,NW,313,7.0,14.0,47,0.00,,,0.00,205.000000,,2013-03-26 21:02:00,
2013-03-26 17:13:00,38.0,20.0,-100.00,NW,313,7.0,14.0,47,0.00,,,0.00,205.000000,,2013-03-26 21:13:00,
2013-03-26 17:22:00,38.0,20.0,-100.00,NW,313,7.0,14.0,47,0.00,,,0.00,205.000000,,2013-03-26 21:22:00,
2013-03-26 17:52:00,39.0,20.0,-100.00,NW,304,5.0,11.0,47,0.00,,,0.00,114.000000,,2013-03-26 21:52:00,
2013-03-26 18:02:00,39.0,20.0,-100.00,NW,304,5.0,11.0,47,0.00,,,0.00,114.000000,,2013-03-26 22:02:00,
2013-03-26 18:12:00,39.0,20.0,-100.00,NW,304,5.0,11.0,47,0.00,,,0.00,114.000000,,2013-03-26 22:12:00,
2013-03-26 18:22:00,39.0,20.0,-100.00,NW,304,5.0,11.0,47,0.00,,,0.00,114.000000,,2013-03-26 22:22:00,
2013-03-26 18:53:00,38.0,19.0,-100.00,WNW,296,5.0,14.0,46,0.00,,,0.00,92.000000,,2013-03-26 22:53:00,
2013-03-26 19:01:00,38.0,19.0,-100.00,WNW,296,5.0,14.0,46,0.00,,,0.00,92.000000,,2013-03-26 23:01:00,
2013-03-26 19:10:00,38.0,19.0,-100.00,WNW,296,5.0,14.0,46,0.00,,,0.00,92.000000,,2013-03-26 23:10:00,
2013-03-26 19:22:00,38.0,19.0,-100.00,WNW,296,5.0,14.0,46,0.00,,,0.00,92.000000,,2013-03-26 23:22:00,
2013-03-26 19:53:00,33.0,21.0,-100.00,South,178,1.0,12.0,62,0.00,,,0.00,10.000000,,2013-03-26 23:53:00,
2013-03-26 20:02:00,33.0,21.0,-100.00,South,178,1.0,12.0,62,0.00,,,0.00,10.000000,,2013-03-27 00:02:00,
2013-03-26 20:12:00,33.0,21.0,-100.00,South,178,1.0,12.0,62,0.00,,,0.00,10.000000,,2013-03-27 00:12:00,
2013-03-26 20:22:00,33.0,21.0,-100.00,South,178,1.0,12.0,62,0.00,,,0.00,10.000000,,2013-03-27 00:22:00,
2013-03-26 20:52:00,31.0,22.0,-100.00,SW,228,2.0,4.0,68,0.00,,,0.00,0.000000,,2013-03-27 00:52:00,
2013-03-26 21:02:00,31.0,22.0,-100.00,SW,228,2.0,4.0,68,0.00,,,0.00,0.000000,,2013-03-27 01:02:00,
2013-03-26 21:12:00,31.0,22.0,-100.00,SW,228,2.0,4.0,68,0.00,,,0.00,0.000000,,2013-03-27 01:12:00,
2013-03-26 21:23:00,31.0,22.0,-100.00,SW,228,2.0,4.0,68,0.00,,,0.00,0.000000,,2013-03-27 01:23:00,
2013-03-26 21:53:00,29.0,21.0,-100.00,South,175,2.0,5.0,73,0.00,,,0.00,0.000000,,2013-03-27 01:53:00,
2013-03-26 22:03:00,29.0,21.0,-100.00,South,175,2.0,5.0,73,0.00,,,0.00,0.000000,,2013-03-27 02:03:00,
2013-03-26 22:12:00,29.0,21.0,-100.00,South,175,2.0,5.0,73,0.00,,,0.00,0.000000,,2013-03-27 02:12:00,
2013-03-26 22:22:00,29.0,21.0,-100.00,South,175,2.0,5.0,73,0.00,,,0.00,0.000000,,2013-03-27 02:22:00,
2013-03-26 22:53:00,30.0,21.0,-100.00,WSW,237,2.0,6.0,68,0.00,,,0.00,0.000000,,2013-03-27 02:53:00,
2013-03-26 23:02:00,30.0,21.0,-100.00,WSW,237,2.0,6.0,68,0.00,,,0.00,0.000000,,2013-03-27 03:02:00,
2013-03-26 23:12:00,30.0,21.0,-100.00,WSW,237,2.0,6.0,68,0.00,,,0.00,0.000000,,2013-03-27 03:12:00,
2013-03-26 23:22:00,30.0,21.0,-100.00,WSW,237,2.0,6.0,68,0.00,,,0.00,0.000000,,2013-03-27 03:22:00,
2013-03-26 23:53:00,31.0,22.0,-100.00,SW,227,2.0,5.0,68,0.00,,,0.00,0.000000,,2013-03-27 03:53:00,